Location: Malvern Link
(52.1333°N, 2.3000°W)
Time: 10:23:30
(UTC+00:00)

SPROUT - Pass Details

Date: 02 July 2022
Orbit: 588 x 598 km, 97.9° (Epoch: 17 August)

Event Time Altitude Azimuth Distance (km) Brightness Sun altitude
Exits shadow 23:01:05 - 104° (ESE) 2,617 ? -13.2°
Reaches altitude 10° 23:03:48 10° 78° (ENE) 1,924 ? -13.4°
Maximum altitude 23:05:30 12° 54° (NE) 1,777 ? -13.4°
Drops below altitude 10° 23:07:12 10° 29° (NNE) 1,930 ? -13.5°
Sets 23:10:34 0° 0° (N) 2,840 ? -13.6°
